Location: Kalberh�ni
(46.4610°N, 7.2453°E)
Time: 05:45:57
(UTC+00:00)

Cosmos 1802 Rocket - Pass Details

Date: 30 October 2021
Orbit: 955 x 1010 km, 82.9° (Epoch: 05 December)

Event Time Altitude Azimuth Distance (km) Brightness Sun altitude
Rises 04:09:14 0° 1° (N) 3,692 7.1 -21.2°
Reaches altitude 10° 04:12:25 10° 16° (NNE) 2,749 6.6 -20.7°
Maximum altitude 04:17:11 22° 65° (ENE) 2,021 6.4 -19.8°
Drops below altitude 10° 04:21:58 10° 115° (ESE) 2,765 7.3 -19.0°
Sets 04:25:09 0° 130° (SE) 3,718 7.9 -18.5°
